Weather History for KSHR - November, 2013

Change the Weather History Date:

Monday, November 4, 2013

  Actual Average Record
Temperature  
Mean Temperature 30 °F 38 °F  
Max Temperature 40 °F 52 °F 75 °F (1950)
Min Temperature 20 °F 24 °F -3 °F (1973)
Degree Days  
Heating Degree Days 35 27  
Month to date heating degree days 114 104  
Since 1 July heating degree days 976 1012  
Cooling Degree Days 0 0  
Month to date cooling degree days 0 0  
Year to date cooling degree days 592 419  
Moisture  
Dew Point 23 °F    
Average Humidity 72    
Maximum Humidity 92    
Minimum Humidity 52    
Precipitation  
Precipitation 0.00 in 0.02 in 0.96 in (1927)
Month to date precipitation 0.06 0.10  
Year to date precipitation 16.78 12.99  
Sea Level Pressure  
Sea Level Pressure 30.06 in    
Wind  
Wind Speed 4 mph (NW)    
Max Wind Speed 13 mph    
Max Gust Speed 15 mph    
Visibility 10 miles    
Events      
T = Trace of Precipitation, MM = Missing Value Source: NWS Daily Summary

Daily Weather History Graph

Daily Weather History Graph

Search for Another Location

Airport or City:

Trip Planner

Search our weather history database for the weather conditions in past years. The results will help you decide how hot, cold, wet, or windy it might be!

Date:

Astronomy

Nov. 04, 2013 Rise Set
Actual Time 6:50 AM MST 4:51 PM MST
Civil Twilight 6:19 AM MST 5:22 PM MST
Nautical Twilight 5:44 AM MST 5:57 PM MST
Astronomical Twilight 5:10 AM MST 6:31 PM MST
Moon 8:06 AM MST (11/4) 5:56 PM MST (11/4)
Length of Visible Light 11h 03m
Length of Day
10h 01m
New Moon, 2% of the Moon is Illuminated
Nov 4
New Moon
Nov 9
First Quarter
Nov 17
Full
Nov 25
Last Quarter
Dec 2
New

Hourly Weather History & Observations

Time (MST) Temp. Windchill Dew Point Humidity Pressure Visibility Wind Dir Wind Speed Gust Speed Precip Events Conditions
12:53 AM 27.0 °F 19.5 °F 18.0 °F 69% 29.98 in 10.0 mi NW 6.9 mph - N/A   Partly Cloudy
1:53 AM 28.0 °F 20.0 °F 19.9 °F 72% 29.99 in 10.0 mi WNW 8.1 mph - N/A   Mostly Cloudy
2:53 AM 26.1 °F - 19.9 °F 78% 30.01 in 10.0 mi Calm Calm - N/A   Overcast
3:53 AM 24.1 °F 19.7 °F 18.0 °F 77% 30.01 in 10.0 mi WSW 3.5 mph - N/A   Clear
4:53 AM 24.1 °F - 19.0 °F 81% 30.04 in 10.0 mi Calm Calm - N/A   Mostly Cloudy
5:53 AM 23.0 °F 17.0 °F 19.0 °F 85% 30.05 in 10.0 mi SSW 4.6 mph - N/A   Overcast
6:53 AM 23.0 °F 18.4 °F 19.0 °F 85% 30.05 in 10.0 mi Variable 3.5 mph - N/A   Overcast
7:53 AM 28.0 °F 24.2 °F 23.0 °F 81% 30.06 in 10.0 mi SSW 3.5 mph - N/A   Clear
8:53 AM 32.0 °F - 23.0 °F 69% 30.06 in 10.0 mi Calm Calm - N/A   Partly Cloudy
9:53 AM 35.1 °F 31.0 °F 23.0 °F 61% 30.06 in 10.0 mi NNE 4.6 mph - N/A   Clear
10:53 AM 37.9 °F 32.1 °F 24.1 °F 57% 30.05 in 10.0 mi North 8.1 mph - N/A   Clear
11:53 AM 37.9 °F 33.5 °F 23.0 °F 55% 30.03 in 10.0 mi NNE 5.8 mph - N/A   Overcast
12:53 PM 37.0 °F 32.4 °F 23.0 °F 57% 30.03 in 10.0 mi NNE 5.8 mph - N/A   Overcast
1:53 PM 36.0 °F 31.1 °F 23.0 °F 59% 30.03 in 10.0 mi NNE 5.8 mph - N/A   Overcast
2:53 PM 37.0 °F - 21.9 °F 54% 30.04 in 10.0 mi Calm Calm - N/A   Mostly Cloudy
3:53 PM 34.0 °F 25.5 °F 27.0 °F 75% 30.07 in 10.0 mi West 11.5 mph - N/A   Overcast
4:53 PM 33.1 °F 28.7 °F 27.0 °F 78% 30.09 in 10.0 mi SE 4.6 mph - N/A   Overcast
5:17 PM 33.1 °F 30.0 °F 27.0 °F 78% 29.98 in 10.0 mi East 3.5 mph - N/A   Overcast
5:53 PM 30.9 °F - 26.1 °F 82% 30.12 in 10.0 mi Calm Calm - N/A   Mostly Cloudy
6:53 PM 27.0 °F - 23.0 °F 85% 30.14 in 10.0 mi Calm Calm - N/A   Partly Cloudy
7:53 PM 24.1 °F - 21.0 °F 88% 30.14 in 10.0 mi Calm Calm - N/A   Partly Cloudy
8:53 PM 27.0 °F 21.6 °F 24.1 °F 89% 30.13 in 10.0 mi WNW 4.6 mph - N/A   Overcast
9:53 PM 28.9 °F 22.8 °F 26.1 °F 89% 30.14 in 10.0 mi NW 5.8 mph - N/A   Overcast
10:33 PM 28.9 °F 23.9 °F 25.0 °F 85% 30.05 in 10.0 mi WNW 4.6 mph - N/A   Overcast
10:53 PM 28.9 °F 22.8 °F 25.0 °F 85% 30.14 in 10.0 mi NW 5.8 mph - N/A   Overcast
11:13 PM 28.9 °F 22.8 °F 24.1 °F 82% 30.05 in 10.0 mi WNW 5.8 mph - N/A   Overcast
11:53 PM 28.0 °F 21.7 °F 24.1 °F 85% 30.15 in 10.0 mi NW 5.8 mph - N/A   Overcast